This is the latest recevied weather packets stored in our database for station/object IV3CGM-13. If no packets are shown the sender has not sent any weather packets the latest 10 day(s).
| Time | Temp. | Humidity | Pressure | Rain* | Wind** | Luminosity | Snow |
|---|---|---|---|---|---|---|---|
| 1777562085 | 17.22° C | 35% | 1022.3 hPa | 0 mm | - | 348 W/m² | - |
| 1777561397 | 17.78° C | 36% | 1022.3 hPa | 0 mm | - | 391 W/m² | - |
| 1777560710 | 17.22° C | 37% | 1022.3 hPa | 0 mm | - | 425 W/m² | - |
| 1777559974 | 17.22° C | 35% | 1022.4 hPa | 0 mm | - | 467 W/m² | - |
| 1777559273 | 17.22° C | 38% | 1022.5 hPa | 0 mm | - | 502 W/m² | - |
| 1777558585 | 17.22° C | 37% | 1022.6 hPa | 0 mm | - | 541 W/m² | - |
| 1777557898 | 17.22° C | 38% | 1022.5 hPa | 0 mm | - | 570 W/m² | - |
| 1777557210 | 17.22° C | 38% | 1022.6 hPa | 0 mm | - | 600 W/m² | - |
| 1777556523 | 16.67° C | 41% | 1022.7 hPa | 0 mm | - | 631 W/m² | - |
| 1777555835 | 16.11° C | 40% | 1022.7 hPa | 0 mm | - | 652 W/m² | - |
| 1777555147 | 16.11° C | 40% | 1022.8 hPa | 0 mm | - | 679 W/m² | - |
| 1777554459 | 16.67° C | 40% | 1023 hPa | 0 mm | - | 699 W/m² | - |
| 1777553785 | 16.11° C | 40% | 1023.1 hPa | 0 mm | - | 720 W/m² | - |
| 1777553084 | 15.56° C | 42% | 1023.2 hPa | 0 mm | - | 740 W/m² | - |
| 1777552397 | 16.11° C | 42% | 1023.3 hPa | 0 mm | - | 766 W/m² | - |
| 1777551709 | 15.56° C | 44% | 1023.3 hPa | 0 mm | - | 779 W/m² | - |
| 1777551021 | 15° C | 47% | 1023.5 hPa | 0 mm | - | 794 W/m² | - |
| 1777550284 | 15° C | 44% | 1023.6 hPa | 0 mm | - | 796 W/m² | - |
| 1777549584 | 15.56° C | 44% | 1023.8 hPa | 0 mm | - | 764 W/m² | - |
| 1777548896 | 15° C | 47% | 1023.8 hPa | 0 mm | - | 816 W/m² | - |
| 1777548208 | 15° C | 46% | 1023.9 hPa | 0 mm | - | 808 W/m² | - |
| 1777547521 | 14.44° C | 47% | 1024 hPa | 0 mm | - | 836 W/m² | - |
| 1777546785 | 15° C | 46% | 1024.1 hPa | 0 mm | - | 838 W/m² | - |
| 1777546084 | 13.89° C | 48% | 1024.1 hPa | 0 mm | - | 843 W/m² | - |
| 1777545396 | 13.89° C | 50% | 1024.2 hPa | 0 mm | - | 838 W/m² | - |
* Rain latest hour (hover to see other rain measurements)
** Current wind speed in m/s (hover to see current wind gust speed)